Honolulu, HI

5:42 PM HST on January 16, 2018 (GMT -1000)
Honolulu International

Weather History for PHNL - August, 2012

Change the Weather History Date:

Wednesday, August 8, 2012

  Actual Average Record
Temperature  
Mean Temperature 80 °F 82 °F  
Max Temperature 86 °F 89 °F 92 °F (2005)
Min Temperature 73 °F 75 °F 70 °F (1979)
Degree Days  
Heating Degree Days 0 0  
Month to date heating degree days 0 0  
Since 1 June heating degree days 0 0  
Since 1 July heating degree days 0 0  
Cooling Degree Days 15 17  
Month to date cooling degree days 128 136  
Year to date cooling degree days 2584 2596  
Since 1 June cooling degree days 1010 1094  
Growing Degree Days 30 (Base 50)    
Moisture  
Dew Point 67 °F    
Average Humidity 69    
Maximum Humidity 87    
Minimum Humidity 51    
Precipitation  
Precipitation T in 0.02 in 1.47 in (1958)
Month to date precipitation T 0.16  
Year to date precipitation 7.69 8.50  
Snow  
Snow 0.00 in - - ()
Month to date snowfall 0.0  
Since 1 June snowfall 0.0  
Since 1 July snowfall 0.0  
Snow Depth 0.00 in    
Sea Level Pressure  
Sea Level Pressure 30.06 in    
Wind  
Wind Speed 14 mph (ENE)    
Max Wind Speed 24 mph    
Max Gust Speed 31 mph    
Visibility 10 miles    
Events Rain    
T = Trace of Precipitation, MM = Missing Value Source: NWS Daily Summary

Daily Weather History Graph

Daily Weather History Graph

Search for Another Location

Airport or City:

Trip Planner

Search our weather history database for the weather conditions in past years. The results will help you decide how hot, cold, wet, or windy it might be!

Date:

Astronomy

Aug. 08, 2012 Rise Set
Actual Time 6:07 AM HST 7:06 PM HST
Civil Twilight 5:44 AM HST 7:29 PM HST
Nautical Twilight 5:16 AM HST 7:57 PM HST
Astronomical Twilight 4:48 AM HST 8:25 PM HST
Moon 11:31 PM HST (8/8) 12:02 PM HST (8/8)
Length of Visible Light 13h 44m
Length of Day
12h 58m
Waning Gibbous, 58% of the Moon is Illuminated
Aug 8
Waning Gibbous
Aug 9
Last Quarter
Aug 17
New
Aug 24
First Quarter
Aug 31
Full

Hourly Weather History & Observations

Time (HST) Temp. Heat Index Dew Point Humidity Pressure Visibility Wind Dir Wind Speed Gust Speed Precip Events Conditions
12:53 AM 75.0 °F - 68.0 °F 79% 30.06 in 10.0 mi ENE 8.1 mph - 0.00 in Rain Light Rain
1:53 AM 73.9 °F - 69.1 °F 85% 30.05 in 10.0 mi ENE 10.4 mph - 0.00 in   Mostly Cloudy
2:53 AM 75.9 °F - 66.0 °F 71% 30.03 in 10.0 mi ENE 15.0 mph 23.0 mph 0.00 in   Mostly Cloudy
3:53 AM 73.0 °F - 69.1 °F 87% 30.04 in 8.0 mi ENE 11.5 mph - 0.00 in Rain Light Rain
4:53 AM 75.0 °F - 68.0 °F 79% 30.04 in 10.0 mi NE 11.5 mph - 0.00 in   Mostly Cloudy
5:53 AM 75.0 °F - 66.9 °F 76% 30.06 in 10.0 mi East 10.4 mph - N/A   Mostly Cloudy
6:53 AM 73.9 °F - 68.0 °F 82% 30.06 in 10.0 mi ENE 10.4 mph - 0.00 in   Mostly Cloudy
7:53 AM 78.1 °F - 64.9 °F 64% 30.07 in 10.0 mi ENE 12.7 mph 24.2 mph N/A   Mostly Cloudy
8:53 AM 80.1 °F 81.9 °F 64.9 °F 60% 30.07 in 10.0 mi East 10.4 mph - N/A   Scattered Clouds
9:53 AM 81.0 °F 82.7 °F 64.9 °F 58% 30.07 in 10.0 mi ENE 17.3 mph 24.2 mph N/A   Scattered Clouds
10:53 AM 84.0 °F 85.8 °F 64.9 °F 53% 30.07 in 10.0 mi NE 16.1 mph 27.6 mph N/A   Scattered Clouds
11:53 AM 82.9 °F 85.4 °F 66.9 °F 58% 30.05 in 10.0 mi ENE 18.4 mph - N/A   Mostly Cloudy
12:53 PM 82.9 °F 85.4 °F 66.9 °F 58% 30.04 in 10.0 mi NE 15.0 mph 27.6 mph N/A   Mostly Cloudy
1:53 PM 84.0 °F 86.3 °F 66.0 °F 55% 30.03 in 10.0 mi ENE 19.6 mph - N/A   Scattered Clouds
2:53 PM 86.0 °F 88.2 °F 66.0 °F 51% 30.01 in 10.0 mi NE 21.9 mph 27.6 mph N/A   Scattered Clouds
3:53 PM 84.0 °F 86.3 °F 66.0 °F 55% 30.01 in 10.0 mi NE 20.7 mph 26.5 mph N/A   Scattered Clouds
4:53 PM 82.9 °F 85.0 °F 66.0 °F 56% 30.02 in 10.0 mi ENE 17.3 mph 27.6 mph N/A   Scattered Clouds
5:53 PM 80.1 °F 82.3 °F 66.9 °F 64% 30.04 in 10.0 mi ENE 16.1 mph 26.5 mph N/A   Scattered Clouds
6:53 PM 79.0 °F - 64.9 °F 62% 30.05 in 10.0 mi ENE 12.7 mph 24.2 mph N/A   Scattered Clouds
7:53 PM 78.1 °F - 66.0 °F 66% 30.07 in 10.0 mi NE 11.5 mph - N/A   Mostly Cloudy
8:53 PM 75.9 °F - 68.0 °F 76% 30.09 in 10.0 mi ENE 16.1 mph - N/A   Mostly Cloudy
9:53 PM 78.1 °F - 68.0 °F 71% 30.10 in 10.0 mi ENE 11.5 mph - N/A   Scattered Clouds
10:53 PM 75.9 °F - 69.1 °F 79% 30.11 in 10.0 mi ENE 10.4 mph - 0.00 in Rain Light Rain
11:53 PM 75.9 °F - 69.1 °F 79% 30.10 in 10.0 mi ENE 9.2 mph - 0.00 in Rain Light Rain